User: anonymous   Login
Location: St Paul
(33.9360°N, 83.4200°W)
Time: 03:55:39
(UTC-05:00)
Language:

METEOR-M - Orbit

View from above orbital plane
View from above orbital plane
View from above satellite
View from above satellite

Ground track
Ground track

The orbit data is extracted from the following two-line orbital elements,

1 35865U 09049A   19052.03690069  .00000011  00000-0  23746-4 0  9997
2 35865  98.4098  55.5770 0002997 137.1459 222.9953 14.22184726489351
Epoch (UTC): 21 February 2019 00:53:08
Eccentricity: 0.0002997
inclination: 98.4098°
perigee height: 816 km
apogee height: 820 km
right ascension of ascending node: 55.5770°
argument of perigee: 137.1459°
revolutions per day: 14.22184726
mean anomaly at epoch: 222.9953°
orbit number at epoch: 48935

The dashed part of the orbit path shows where the satellite is in the earth's shadow,  

DLR